Auburn-Lewiston, ME

6:59 PM EDT on July 27, 2017 (GMT -0400)
Auburn-Lewiston Municipal

Weather History for KLEW - March, 2012

Change the Weather History Date:

Friday, March 9, 2012

  Actual Average Record
Temperature  
Mean Temperature 40 °F -  
Max Temperature 57 °F 34 °F 69 °F (2016)
Min Temperature 23 °F 18 °F 0 °F (1997)
Degree Days  
Heating Degree Days 25    
Moisture  
Dew Point 20 °F    
Average Humidity 57    
Maximum Humidity 87    
Minimum Humidity 33    
Precipitation  
Precipitation 0.03 in - - ()
Sea Level Pressure  
Sea Level Pressure 29.93 in    
Wind  
Wind Speed 11 mph (NW)    
Max Wind Speed 23 mph    
Max Gust Speed 33 mph    
Visibility 10 miles    
Events      
Averages and records for this station are not official NWS values.
T = Trace of Precipitation, MM = Missing Value Source: NWS Daily Summary

Daily Weather History Graph

Daily Weather History Graph

Search for Another Location

Airport or City:

Trip Planner

Search our weather history database for the weather conditions in past years. The results will help you decide how hot, cold, wet, or windy it might be!

Date:

Astronomy

Mar. 09, 2012 Rise Set
Actual Time 6:03 AM EST 5:40 PM EST
Civil Twilight 5:34 AM EST 6:09 PM EST
Nautical Twilight 5:01 AM EST 6:42 PM EST
Astronomical Twilight 4:27 AM EST 7:16 PM EST
Moon 7:42 PM EST (3/9) 6:15 AM EST (3/9)
Length of Visible Light 12h 34m
Length of Day
11h 37m
Full, 98% of the Moon is Illuminated
Mar 9
Full
Mar 14
Last Quarter
Mar 22
New
Mar 30
First Quarter
Apr 6
Full

Hourly Weather History & Observations

Time (EST) Temp. Windchill Dew Point Humidity Pressure Visibility Wind Dir Wind Speed Gust Speed Precip Events Conditions
12:15 AM 55.4 °F - 44.6 °F 67% 29.55 in 10.0 mi SSW 23.0 mph 32.2 mph N/A   Partly Cloudy
12:35 AM 57.2 °F - 44.6 °F 63% 29.56 in 10.0 mi SSW 13.8 mph 28.8 mph N/A   Mostly Cloudy
12:55 AM 50.0 °F - 39.2 °F 66% 29.63 in 10.0 mi WNW 12.7 mph 27.6 mph N/A   Overcast
1:15 AM 44.6 °F 37.8 °F 37.4 °F 76% 29.65 in 10.0 mi NNW 15.0 mph 21.9 mph N/A   Overcast
1:35 AM 42.8 °F 36.6 °F 37.4 °F 81% 29.66 in 5.0 mi NNW 11.5 mph 17.3 mph N/A   Overcast
1:55 AM 41.0 °F 33.9 °F 37.4 °F 87% 29.67 in 6.0 mi NW 12.7 mph 18.4 mph 0.02 in   Overcast
2:15 AM 39.2 °F 32.5 °F 35.6 °F 87% 29.68 in 7.0 mi NW 10.4 mph - N/A   Overcast
2:35 AM 39.2 °F 35.9 °F 35.6 °F 87% 29.67 in 8.0 mi WNW 4.6 mph - 0.01 in   Overcast
2:55 AM 39.2 °F 37.0 °F 35.6 °F 87% 29.68 in 10.0 mi West 3.5 mph - 0.01 in   Overcast
3:15 AM 39.2 °F - 35.6 °F 87% 29.69 in 10.0 mi Calm Calm - N/A   Overcast
3:35 AM 39.2 °F 32.0 °F 33.8 °F 81% 29.70 in 10.0 mi West 11.5 mph 18.4 mph N/A   Overcast
3:55 AM 39.2 °F 31.2 °F 30.2 °F 70% 29.71 in 10.0 mi West 13.8 mph 20.7 mph N/A   Overcast
4:15 AM 39.2 °F 32.0 °F 30.2 °F 70% 29.70 in 10.0 mi WNW 11.5 mph - N/A   Mostly Cloudy
4:55 AM 37.4 °F 30.3 °F 32.0 °F 81% 29.76 in 10.0 mi West 10.4 mph 18.4 mph N/A   Overcast
5:15 AM 37.4 °F 31.4 °F 32.0 °F 81% 29.76 in 10.0 mi WNW 8.1 mph - N/A   Mostly Cloudy
5:35 AM 37.4 °F 31.4 °F 30.2 °F 75% 29.78 in 10.0 mi NW 8.1 mph - N/A   Clear
5:55 AM 37.4 °F 29.8 °F 28.4 °F 70% - 10.0 mi NNW 11.5 mph 17.3 mph N/A   Mostly Cloudy
6:35 AM 35.6 °F 27.1 °F 24.8 °F 65% - 10.0 mi NW 12.7 mph 17.3 mph N/A   Partly Cloudy
7:15 AM 35.6 °F 28.0 °F 23.0 °F 60% 29.90 in 10.0 mi NW 10.4 mph - N/A   Mostly Cloudy
7:35 AM 35.6 °F 25.2 °F 19.4 °F 52% 29.92 in 10.0 mi WNW 18.4 mph 23.0 mph N/A   Overcast
7:55 AM 35.6 °F 24.5 °F 17.6 °F 48% 29.94 in 10.0 mi WNW 20.7 mph 33.4 mph N/A   Mostly Cloudy
8:15 AM 35.6 °F 25.2 °F 17.6 °F 48% 29.95 in 10.0 mi NW 18.4 mph 31.1 mph N/A   Mostly Cloudy
8:35 AM 33.8 °F 22.8 °F 21.2 °F 60% 29.97 in 10.0 mi NW 18.4 mph 25.3 mph N/A   Overcast
8:55 AM 33.8 °F 25.3 °F 19.4 °F 56% 29.97 in 10.0 mi NW 11.5 mph 19.6 mph N/A   Mostly Cloudy
9:15 AM 35.6 °F 28.0 °F 17.6 °F 48% 29.98 in 10.0 mi WNW 10.4 mph 23.0 mph N/A   Clear
9:55 AM 33.8 °F 23.5 °F 12.2 °F 41% 29.99 in 10.0 mi NW 16.1 mph 27.6 mph N/A   Clear
10:15 AM 35.6 °F 25.9 °F 15.8 °F 44% 29.99 in 10.0 mi NNW 16.1 mph 20.7 mph N/A   Clear
10:35 AM 35.6 °F 25.9 °F 12.2 °F 38% 30.00 in 10.0 mi NW 16.1 mph 23.0 mph N/A   Clear
10:55 AM 35.6 °F 28.6 °F 12.2 °F 38% 30.00 in 10.0 mi WNW 9.2 mph - N/A   Clear
11:15 AM 35.6 °F 27.5 °F 15.8 °F 44% 30.01 in 10.0 mi NW 11.5 mph 19.6 mph N/A   Clear
11:35 AM 35.6 °F 25.9 °F 14.0 °F 41% 30.01 in 10.0 mi WNW 16.1 mph 20.7 mph N/A   Partly Cloudy
11:55 AM 35.6 °F 25.5 °F 12.2 °F 38% 30.00 in 10.0 mi NW 17.3 mph 21.9 mph N/A   Partly Cloudy
12:15 PM 35.6 °F 28.0 °F 14.0 °F 41% 30.00 in 10.0 mi NNW 10.4 mph 16.1 mph N/A   Clear
12:35 PM 37.4 °F 30.8 °F 15.8 °F 41% 30.00 in 10.0 mi WNW 9.2 mph - N/A   Clear
12:55 PM 37.4 °F 28.5 °F 12.2 °F 36% 30.00 in 10.0 mi NW 15.0 mph - N/A   Clear
1:15 PM 37.4 °F 30.3 °F 12.2 °F 36% 29.99 in 10.0 mi NW 10.4 mph - N/A   Clear
1:35 PM 37.4 °F 31.4 °F 12.2 °F 36% 29.98 in 10.0 mi NNW 8.1 mph 17.3 mph N/A   Clear
1:55 PM 37.4 °F 32.8 °F 10.4 °F 33% 29.99 in 10.0 mi NW 5.8 mph - N/A   Partly Cloudy
2:15 PM 37.4 °F 30.8 °F 12.2 °F 36% 30.00 in 10.0 mi NNW 9.2 mph 17.3 mph N/A   Scattered Clouds
2:35 PM 39.2 °F 32.0 °F 12.2 °F 33% 30.01 in 10.0 mi NNW 11.5 mph - N/A   Mostly Cloudy
2:55 PM 37.4 °F 30.8 °F 12.2 °F 36% 30.01 in 10.0 mi NW 9.2 mph - N/A   Mostly Cloudy
3:15 PM 37.4 °F 31.4 °F 14.0 °F 38% 30.02 in 10.0 mi NNW 8.1 mph - N/A   Partly Cloudy
3:35 PM 37.4 °F 29.3 °F 12.2 °F 36% 30.03 in 10.0 mi NW 12.7 mph 16.1 mph N/A   Clear
3:55 PM 37.4 °F 31.4 °F 12.2 °F 36% 30.03 in 10.0 mi NNW 8.1 mph - N/A   Clear
4:15 PM 37.4 °F 30.8 °F 12.2 °F 36% 30.03 in 10.0 mi NNW 9.2 mph - N/A   Clear
4:35 PM 37.4 °F 29.8 °F 12.2 °F 36% 30.04 in 10.0 mi NNW 11.5 mph - N/A   Clear
4:55 PM 35.6 °F 28.0 °F 12.2 °F 38% 30.05 in 10.0 mi NNW 10.4 mph - N/A   Clear
5:15 PM 35.6 °F 28.0 °F 12.2 °F 38% 30.06 in 10.0 mi NW 10.4 mph - N/A   Clear
5:35 PM 35.6 °F 28.6 °F 12.2 °F 38% 30.07 in 10.0 mi NNW 9.2 mph - N/A   Clear
5:55 PM 33.8 °F 27.7 °F 12.2 °F 41% 30.07 in 10.0 mi NW 6.9 mph - N/A   Clear
6:15 PM 33.8 °F 28.6 °F 14.0 °F 44% 30.08 in 10.0 mi NNW 5.8 mph - N/A   Clear
6:55 PM 32.0 °F 28.7 °F 14.0 °F 48% 30.10 in 10.0 mi North 3.5 mph - N/A   Clear
7:15 PM 30.2 °F 26.7 °F 12.2 °F 47% 30.10 in 10.0 mi NNE 3.5 mph - N/A   Clear
7:35 PM 28.4 °F - 14.0 °F 55% 30.11 in 10.0 mi Calm Calm - N/A   Clear
7:55 PM 28.4 °F - 15.8 °F 59% - 10.0 mi Calm Calm - N/A   Clear
8:15 PM 26.6 °F - 15.8 °F 64% - 10.0 mi Calm Calm - N/A   Clear
8:35 PM 24.8 °F - 17.6 °F 74% 30.12 in 10.0 mi Calm Calm - N/A   Clear
8:55 PM 26.6 °F - 15.8 °F 64% - 10.0 mi Calm Calm - N/A   Clear
9:15 PM 26.6 °F - 17.6 °F 69% - 10.0 mi Calm Calm - N/A   Clear
9:35 PM 26.6 °F - 17.6 °F 69% - 10.0 mi Calm Calm - N/A   Clear
10:15 PM 24.8 °F - 19.4 °F 80% - 10.0 mi Calm Calm - N/A   Clear
10:35 PM 24.8 °F - 17.6 °F 74% 30.13 in 10.0 mi Calm Calm - N/A   Clear
10:55 PM 24.8 °F - 17.6 °F 74% 30.13 in 10.0 mi Calm Calm - N/A   Clear
11:15 PM 24.8 °F - 19.4 °F 80% 30.13 in 10.0 mi Calm Calm - N/A   Clear
11:35 PM 23.0 °F 18.4 °F 17.6 °F 80% 30.13 in 10.0 mi North 3.5 mph - N/A   Clear
11:55 PM 24.8 °F 20.5 °F 19.4 °F 80% 30.13 in 10.0 mi North 3.5 mph - N/A   Mostly Cloudy